TimeCDT,TemperatureF,Dew PointF,Humidity,Sea Level PressureIn,VisibilityMPH,Wind Direction,Wind SpeedMPH,Gust SpeedMPH,PrecipitationIn,Events,Conditions,WindDirDegrees,DateUTC
12:54 AM,34.0,32.0,92,29.99,10.0,Calm,Calm,-,N/A,,Clear,0,2011-10-22 05:54:00
2:54 AM,30.9,28.9,92,29.97,9.0,Calm,Calm,-,N/A,,Clear,0,2011-10-22 07:54:00
3:54 AM,30.0,28.9,96,29.97,10.0,Calm,Calm,-,N/A,,Clear,0,2011-10-22 08:54:00
4:54 AM,30.0,28.0,92,29.98,10.0,Calm,Calm,-,N/A,,Clear,0,2011-10-22 09:54:00
6:54 AM,30.9,26.1,82,30.01,10.0,Calm,Calm,-,N/A,,Clear,0,2011-10-22 11:54:00
7:54 AM,32.0,27.0,82,30.02,10.0,Calm,Calm,-,N/A,,Clear,0,2011-10-22 12:54:00
8:54 AM,41.0,33.1,73,30.02,10.0,WNW,4.6,-,N/A,,Clear,300,2011-10-22 13:54:00
9:54 AM,46.0,37.0,71,30.02,10.0,NW,9.2,-,N/A,,Clear,310,2011-10-22 14:54:00
10:54 AM,51.1,37.9,61,30.03,10.0,NW,10.4,-,N/A,,Clear,310,2011-10-22 15:54:00
11:54 AM,54.0,37.0,53,30.03,10.0,NNW,9.2,-,N/A,,Clear,340,2011-10-22 16:54:00
12:54 PM,53.1,37.0,55,30.02,10.0,NW,13.8,-,N/A,,Scattered Clouds,320,2011-10-22 17:54:00
1:54 PM,53.1,37.0,55,30.03,10.0,NNW,12.7,-,N/A,,Overcast,330,2011-10-22 18:54:00
2:54 PM,55.0,36.0,49,30.04,10.0,North,12.7,-,N/A,,Overcast,360,2011-10-22 19:54:00
3:54 PM,52.0,35.1,53,30.05,10.0,North,8.1,-,N/A,,Overcast,350,2011-10-22 20:54:00
4:54 PM,51.1,34.0,52,30.05,10.0,NNW,9.2,-,N/A,,Overcast,330,2011-10-22 21:54:00
5:54 PM,46.9,33.1,59,30.06,10.0,NNW,4.6,-,N/A,,Clear,330,2011-10-22 22:54:00
6:54 PM,41.0,34.0,76,30.06,10.0,Calm,Calm,-,N/A,,Clear,0,2011-10-22 23:54:00
7:54 PM,37.0,30.9,79,30.06,10.0,Calm,Calm,-,N/A,,Partly Cloudy,0,2011-10-23 00:54:00
8:54 PM,33.1,30.0,89,30.06,10.0,Calm,Calm,-,N/A,,Clear,0,2011-10-23 01:54:00
11:54 PM,28.0,27.0,96,30.03,6.0,Calm,Calm,-,N/A,,Clear,0,2011-10-23 04:54:00